CT1AKV-10 Weather Reports


Display with metric or nautical units.
time (UTC)temp
F
wind
direction
speed
MPH
gust
MPH
rain 1hr
in
rain 24hr
in
rain mn
in
humidity
%
barometer
mb
20260507044503 51 105 3.0 6.0 0.00 0.00 0.00 94 1009.5
20260507043003 51 123 2.0 6.0 0.00 0.00 0.00 94 1010.0
20260507041503 51 119 3.0 4.0 0.00 0.00 0.00 94 1010.1
20260507040003 51 122 3.0 7.0 0.00 0.00 0.00 93 1010.3
20260507034503 51 118 3.0 6.0 0.00 0.00 0.00 93 1010.6
20260507033003 51 108 3.0 6.0 0.00 0.00 0.00 93 1010.3
20260507031503 51 115 2.0 6.0 0.00 0.00 0.00 92 1010.5
20260507030003 51 122 3.0 6.0 0.00 0.00 0.00 92 1010.4
20260507024503 52 129 3.0 7.0 0.00 0.00 0.00 92 1010.3
20260507023003 52 125 3.0 7.0 0.00 0.00 0.00 91 1010.6
20260507021503 52 122 3.0 6.0 0.00 0.00 0.00 91 1010.6
20260507020003 52 112 3.0 6.0 0.00 0.00 0.00 91 1010.7
20260507014503 52 124 3.0 7.0 0.00 0.00 0.00 90 1010.6
20260507013003 52 128 3.0 7.0 0.00 0.00 0.00 90 1010.9
20260507011503 52 120 2.0 4.0 0.00 0.00 0.00 89 1010.9
20260507010003 53 122 2.0 6.0 0.00 0.00 0.00 89 1011.1
20260507004503 53 108 2.0 6.0 0.00 0.00 0.00 88 1011.2
20260507003003 53 129 3.0 7.0 0.00 0.00 0.00 87 1011.2
20260507001503 53 121 3.0 7.0 0.00 0.00 0.00 87 1011.3
20260507000003 53 119 3.0 6.0 0.00 0.00 0.00 87 1011.4
20260506234503 54 124 3.0 4.0 0.00 0.00 0.00 87 1011.4
20260506233003 54 125 3.0 6.0 0.00 0.00 0.00 86 1011.2
20260506231503 54 118 2.0 4.0 0.00 0.00 0.00 86 1011.6
20260506230004 54 133 3.0 6.0 0.00 0.00 0.00 86 1011.7
20260506224503 54 129 3.0 6.0 0.00 0.00 0.00 85 1011.6
20260506223003 54 122 2.0 6.0 0.00 0.00 0.00 85 1011.5
20260506221504 54 145 3.0 6.0 0.00 0.00 0.00 84 1011.5
20260506220003 55 120 3.0 9.0 0.00 0.00 0.00 83 1011.7
20260506214503 55 124 4.0 8.0 0.00 0.00 0.00 83 1011.7
20260506213003 55 128 4.0 8.0 0.00 0.00 0.00 83 1011.6
20260506211503 56 127 4.0 11.0 0.00 0.00 0.00 81 1011.5
20260506210003 56 133 4.0 11.0 0.00 0.00 0.00 79 1011.8
20260506204503 57 130 5.0 14.0 0.00 0.00 0.00 78 1011.6
20260506203003 57 128 5.0 13.0 0.00 0.00 0.00 77 1011.3
20260506201503 58 118 5.0 11.0 0.00 0.00 0.00 76 1011.4
20260506200003 58 138 6.0 13.0 0.00 0.00 0.00 74 1011.3
20260506194503 59 133 6.0 13.0 0.00 0.00 0.00 72 1011.3
20260506193003 59 136 4.0 11.0 0.00 0.00 0.00 71 1011.0
20260506191503 60 151 5.0 11.0 0.00 0.00 0.00 68 1011.1
20260506190003 61 143 5.0 15.0 0.00 0.00 0.00 67 1010.9
20260506184503 62 146 6.0 11.0 0.00 0.00 0.00 64 1010.7
20260506183003 64 116 5.0 13.0 0.00 0.00 0.00 63 1010.9
20260506181503 64 123 6.0 15.0 0.00 0.00 0.00 60 1010.9
20260506180004 65 145 6.0 14.0 0.00 0.00 0.00 58 1011.0
20260506174503 65 119 6.0 15.0 0.00 0.00 0.00 57 1010.9
20260506173003 66 132 6.0 13.0 0.00 0.00 0.00 56 1010.9
20260506171503 66 125 6.0 17.0 0.00 0.00 0.00 56 1011.0
20260506170003 67 145 6.0 14.0 0.00 0.00 0.00 56 1011.1
20260506164503 67 136 7.0 15.0 0.00 0.00 0.00 58 1011.1
20260506163003 68 145 6.0 14.0 0.00 0.00 0.00 56 1010.9
20260506161503 69 144 6.0 13.0 0.00 0.00 0.00 56 1010.7
20260506160003 69 138 6.0 14.0 0.00 0.00 0.00 58 1011.2
20260506154503 69 140 6.0 14.0 0.00 0.00 0.00 58 1011.0
20260506153003 69 123 5.0 11.0 0.00 0.00 0.00 56 1011.3
20260506151503 67 156 6.0 14.0 0.00 0.00 0.00 61 1011.5
20260506150003 70 136 6.0 15.0 0.00 0.00 0.00 56 1011.6
20260506144503 67 116 5.0 13.0 0.00 0.00 0.00 60 1011.8
20260506143003 69 128 5.0 13.0 0.00 0.00 0.00 56 1012.0
20260506141503 70 125 5.0 11.0 0.00 0.00 0.00 56 1012.1
20260506140003 71 128 5.0 15.0 0.00 0.00 0.00 56 1012.4
20260506134503 67 122 4.0 11.0 0.00 0.00 0.00 59 1012.6
20260506133003 68 125 5.0 11.0 0.00 0.00 0.00 59 1012.6
20260506131503 70 121 5.0 11.0 0.00 0.00 0.00 58 1012.6
20260506130004 70 127 4.0 14.0 0.00 0.00 0.00 60 1012.6
20260506124503 67 113 5.0 11.0 0.00 0.00 0.00 62 1012.8
20260506123003 67 124 3.0 11.0 0.00 0.00 0.00 61 1013.0
20260506121503 66 124 4.0 8.0 0.00 0.00 0.00 61 1013.2
20260506120003 67 149 4.0 11.0 0.00 0.00 0.00 59 1013.5
20260506114503 67 147 4.0 11.0 0.00 0.00 0.00 57 1013.5
20260506113003 66 156 4.0 11.0 0.00 0.00 0.00 61 1013.5
20260506111503 69 104 3.0 9.0 0.00 0.00 0.00 52 1013.7
20260506110004 68 138 4.0 11.0 0.00 0.00 0.00 55 1013.9
20260506104503 69 192 3.0 8.0 0.00 0.00 0.00 53 1014.0
20260506103003 65 151 3.0 7.0 0.00 0.00 0.00 61 1014.0
20260506101503 67 134 3.0 8.0 0.00 0.00 0.00 59 1013.9
20260506100003 64 140 3.0 7.0 0.00 0.00 0.00 63 1014.1
20260506094503 66 138 2.0 6.0 0.00 0.00 0.00 62 1014.1
20260506093003 65 156 3.0 9.0 0.00 0.00 0.00 65 1014.2
20260506091503 65 172 3.0 8.0 0.00 0.00 0.00 69 1014.2
20260506090003 63 137 3.0 8.0 0.00 0.00 0.00 72 1014.3
20260506084503 62 113 3.0 8.0 0.00 0.00 0.00 74 1014.1
20260506083003 60 133 3.0 7.0 0.00 0.00 0.00 76 1014.4
20260506081503 60 175 3.0 6.0 0.00 0.00 0.00 77 1014.4
20260506073003 57 134 2.0 4.0 0.00 0.00 0.00 85 1014.7
20260506071503 56 130 2.0 4.0 0.00 0.00 0.00 89 1014.6
20260506061503 50 113 1.0 4.0 0.00 0.00 0.00 97 1014.2